Breckenridge, TX

3:47 PM CDT on August 21, 2017 (GMT -0500)
Stephens County

Weather History for KBKD - April, 2013

Change the Weather History Date:

Wednesday, April 24, 2013

  Actual Average (KMWL) Record (KMWL)
Temperature  
Mean Temperature 48 °F -  
Max Temperature 62 °F 76 °F 91 °F (2002)
Min Temperature 35 °F 53 °F 33 °F (2013)
Degree Days  
Heating Degree Days 16    
Moisture  
Dew Point 26 °F    
Average Humidity 44    
Maximum Humidity 70    
Minimum Humidity 20    
Precipitation  
Precipitation 0.00 in - - ()
Sea Level Pressure  
Sea Level Pressure 30.28 in    
Wind  
Wind Speed 10 mph (NNE)    
Max Wind Speed 20 mph    
Max Gust Speed 26 mph    
Visibility 10 miles    
Events      
Averages and records for this station are not official NWS values.
T = Trace of Precipitation, MM = Missing Value Source: NWS Daily Summary

Daily Weather History Graph

Daily Weather History Graph

Search for Another Location

Airport or City:

Trip Planner

Search our weather history database for the weather conditions in past years. The results will help you decide how hot, cold, wet, or windy it might be!

Date:

Astronomy

Apr. 24, 2013 Rise Set
Actual Time 6:55 AM CDT 8:12 PM CDT
Civil Twilight 6:29 AM CDT 8:38 PM CDT
Nautical Twilight 5:58 AM CDT 9:09 PM CDT
Astronomical Twilight 5:26 AM CDT 9:41 PM CDT
Moon 7:19 PM CDT (4/24) 5:56 AM CDT (4/24)
Length of Visible Light 14h 08m
Length of Day
13h 16m
Waxing Gibbous, 98% of the Moon is Illuminated
Apr 24
Waxing Gibbous
Apr 25
Full
May 2
Last Quarter
May 9
New
May 17
First Quarter

Hourly Weather History & Observations

Time (CDT) Temp. Windchill Dew Point Humidity Pressure Visibility Wind Dir Wind Speed Gust Speed Precip Events Conditions
12:14 AM 41.0 °F 33.9 °F 30.2 °F 65% 30.27 in 10.0 mi North 12.7 mph 18.4 mph N/A   Overcast
12:34 AM 41.0 °F 33.5 °F 30.2 °F 65% 30.26 in 10.0 mi North 13.8 mph 21.9 mph N/A   Overcast
12:54 AM 41.0 °F 34.7 °F 30.2 °F 65% 30.25 in 10.0 mi North 10.4 mph 20.7 mph N/A   Overcast
1:14 AM 41.0 °F 33.5 °F 30.2 °F 65% 30.27 in 10.0 mi North 13.8 mph 20.7 mph N/A   Overcast
1:55 AM 41.0 °F 33.5 °F 30.2 °F 65% 30.28 in 10.0 mi North 13.8 mph 20.7 mph N/A   Overcast
2:14 AM 41.0 °F 31.9 °F 28.4 °F 61% 30.28 in 10.0 mi North 19.6 mph 26.5 mph N/A   Overcast
2:34 AM 39.2 °F 29.6 °F 26.6 °F 61% 30.28 in 10.0 mi North 19.6 mph 24.2 mph N/A   Mostly Cloudy
3:15 AM 39.2 °F 30.5 °F 26.6 °F 61% 30.28 in 10.0 mi North 16.1 mph 20.7 mph N/A   Clear
3:34 AM 37.4 °F 29.8 °F 26.6 °F 65% 30.27 in 10.0 mi North 11.5 mph 17.3 mph N/A   Clear
4:15 AM 37.4 °F 30.8 °F 26.6 °F 65% 30.29 in 10.0 mi North 9.2 mph 17.3 mph N/A   Clear
4:34 AM 37.4 °F 32.8 °F 26.6 °F 65% 30.29 in 10.0 mi North 5.8 mph - N/A   Clear
4:54 AM 37.4 °F 32.8 °F 26.6 °F 65% 30.30 in 10.0 mi North 5.8 mph - N/A   Clear
5:14 AM 35.6 °F 31.7 °F 26.6 °F 70% 30.30 in 10.0 mi North 4.6 mph - N/A   Clear
5:54 AM 35.6 °F 31.7 °F 26.6 °F 70% 30.31 in 10.0 mi NNW 4.6 mph - N/A   Clear
6:14 AM 35.6 °F 30.7 °F 26.6 °F 70% 30.31 in 10.0 mi North 5.8 mph - N/A   Clear
6:34 AM 35.6 °F 32.8 °F 26.6 °F 70% 30.31 in 10.0 mi North 3.5 mph - N/A   Clear
6:54 AM 35.6 °F 31.7 °F 26.6 °F 70% 30.31 in 10.0 mi North 4.6 mph - N/A   Clear
7:35 AM 35.6 °F 30.7 °F 26.6 °F 70% 30.32 in 10.0 mi North 5.8 mph - N/A   Clear
7:54 AM 35.6 °F 29.9 °F 26.6 °F 70% 30.33 in 10.0 mi North 6.9 mph - N/A   Clear
8:35 AM 39.2 °F 33.0 °F 28.4 °F 65% 30.35 in 10.0 mi North 9.2 mph 16.1 mph N/A   Clear
8:54 AM 39.2 °F 32.0 °F 28.4 °F 65% 30.35 in 10.0 mi North 11.5 mph - N/A   Clear
9:35 AM 42.8 °F 35.4 °F 28.4 °F 57% 30.35 in 10.0 mi NNE 15.0 mph - N/A   Clear
9:54 AM 44.6 °F 38.4 °F 28.4 °F 53% 30.35 in 10.0 mi NNE 12.7 mph 18.4 mph N/A   Clear
10:14 AM 44.6 °F 40.2 °F 28.4 °F 53% 30.34 in 10.0 mi North 8.1 mph 17.3 mph N/A   Clear
10:34 AM 46.4 °F 41.5 °F 28.4 °F 50% 30.34 in 10.0 mi NNE 10.4 mph 16.1 mph N/A   Clear
11:15 AM 48.2 °F - 26.6 °F 43% 30.33 in 10.0 mi NE 12.7 mph 17.3 mph N/A   Clear
11:37 AM 50.0 °F - 26.6 °F 40% 30.32 in 10.0 mi North 9.2 mph - N/A   Clear
11:55 AM 50.0 °F - 24.8 °F 37% 30.32 in 10.0 mi NNE 4.6 mph 18.4 mph N/A   Clear
12:14 PM 53.6 °F - 24.8 °F 33% 30.31 in 10.0 mi NNE 10.4 mph - N/A   Clear
12:34 PM 53.6 °F - 23.0 °F 30% 30.30 in 10.0 mi NE 10.4 mph - N/A   Clear
12:58 PM 53.6 °F - 24.8 °F 33% 30.30 in 10.0 mi NNE 6.9 mph 10.4 mph N/A   Clear
1:14 PM 55.4 °F - 23.0 °F 29% 30.29 in 10.0 mi NE 4.6 mph 18.4 mph N/A   Clear
1:34 PM 55.4 °F - 23.0 °F 29% 30.28 in 10.0 mi NE 10.4 mph - N/A   Clear
1:54 PM 57.2 °F - 23.0 °F 27% 30.27 in 10.0 mi North 5.8 mph - N/A   Clear
2:14 PM 57.2 °F - 24.8 °F 29% 30.27 in 10.0 mi NNE 9.2 mph - N/A   Clear
2:34 PM 59.0 °F - 23.0 °F 25% 30.26 in 10.0 mi ENE 5.8 mph - N/A   Clear
2:54 PM 60.8 °F - 23.0 °F 23% 30.25 in 10.0 mi North 6.9 mph - N/A   Clear
3:14 PM 60.8 °F - 24.8 °F 25% 30.25 in 10.0 mi ENE 5.8 mph - N/A   Clear
3:37 PM 60.8 °F - 21.2 °F 22% 30.24 in 10.0 mi North 5.8 mph - N/A   Mostly Cloudy
3:55 PM 60.8 °F - 23.0 °F 23% 30.23 in 10.0 mi NE 6.9 mph - N/A   Overcast
4:14 PM 60.8 °F - 23.0 °F 23% 30.23 in 10.0 mi NE 6.9 mph - N/A   Overcast
4:56 PM 62.6 °F - 24.8 °F 24% 30.21 in 10.0 mi NE 5.8 mph - N/A   Mostly Cloudy
5:14 PM 62.6 °F - 23.0 °F 22% 30.20 in 10.0 mi NE 8.1 mph - N/A   Mostly Cloudy
5:34 PM 62.6 °F - 21.2 °F 20% 30.20 in 10.0 mi NNE 6.9 mph - N/A   Overcast
6:15 PM 62.6 °F - 23.0 °F 22% 30.20 in 10.0 mi Calm Calm - N/A   Overcast
6:57 PM 62.6 °F - 24.8 °F 24% 30.20 in 10.0 mi ESE 5.8 mph - N/A   Overcast
7:14 PM 62.6 °F - 24.8 °F 24% 30.21 in 10.0 mi ESE 8.1 mph - N/A   Overcast
7:34 PM 62.6 °F - 24.8 °F 24% 30.21 in 10.0 mi ESE 8.1 mph - N/A   Overcast
7:54 PM 60.8 °F - 24.8 °F 25% 30.22 in 10.0 mi East 5.8 mph - N/A   Overcast
8:35 PM 59.0 °F - 26.6 °F 29% 30.23 in 10.0 mi East 5.8 mph - N/A   Mostly Cloudy
8:54 PM 57.2 °F - 26.6 °F 31% 30.24 in 10.0 mi ESE 5.8 mph - N/A   Scattered Clouds
9:54 PM 57.2 °F - 28.4 °F 33% 30.27 in 10.0 mi ESE 5.8 mph - N/A   Overcast
10:17 PM 57.2 °F - 30.2 °F 36% 30.28 in 10.0 mi ESE 5.8 mph - N/A   Overcast
10:34 PM 57.2 °F - 28.4 °F 33% 30.29 in 10.0 mi East 4.6 mph - N/A   Mostly Cloudy
10:54 PM 57.2 °F - 30.2 °F 36% 30.29 in 10.0 mi ESE 5.8 mph - N/A   Mostly Cloudy
11:14 PM 55.4 °F - 30.2 °F 38% 30.29 in 10.0 mi ESE 4.6 mph - N/A   Overcast
11:34 PM 55.4 °F - 30.2 °F 38% 30.29 in 10.0 mi ESE 5.8 mph - N/A   Mostly Cloudy
11:54 PM 55.4 °F - 32.0 °F 41% 30.29 in 10.0 mi East 5.8 mph - N/A   Scattered Clouds